Regional Weather Roundup
Issued by NWS

Home | Current Version | Previous Version | Text Only | Print | Product List | Glossary On
Versions: 1 2 3 4 5 6 7 8 9 10 11 12 13 14 15 16 17 18 19 20 21 22 23 24 25 26 27 28 29 30 31 32 33 34 35 36 37 38 39 40 41 42 43 44 45 46 47 48 49 50
000
ASUS43 KDMX 220307
RWRIA

WEATHER ROUNDUP FOR IOWA
NATIONAL WEATHER SERVICE DES MOINES IA
900 PM CST FRI NOV 21 2014

NOTE: "FAIR" INDICATES FEW OR NO CLOUDS BELOW 12,000 FEET WITH NO
SIGNIFICANT WEATHER AND/OR OBSTRUCTIONS TO VISIBILITY.

* - THESE STATIONS ARE NOT NWS STATIONS...THUS NOT UNDER NWS
QUALITY CONTROL.  THEY ALSO DO NOT REPORT WEATHER SUCH
AS PRECIPITATION OR FOG.

IAZ001>003-012>014-020>022-031>034-043>046-220400-
   NORTHWEST IOWA

CITY           SKY/WX    TMP DP  RH WIND       PRES   REMARKS
CARROLL *      CLOUDY    34  32  93 S15       30.01S WCI  24
CHEROKEE *     MOCLDY    36  32  87 S15       29.94F WCI  26
DENISON *      CLOUDY    36  32  87 S16G24    29.98F WCI  26
LE MARS *      MOCLDY    34  28  80 S12       29.94R WCI  25
ORANGE CITY *  MOCLDY    34  28  80 S10       29.93S WCI  26
SHELDON *      MOCLDY    32  28  86 S16       29.91S WCI  21
SIOUX CITY     MOCLDY    36  29  75 E5        29.96S WCI  32
SPENCER        MOCLDY    33  29  85 S14       29.93S WCI  23
STORM LAKE *   CLOUDY    34  32  93 S16G23    29.95F FOG     WCI  23
$$

IAZ055>058-069>071-079>083-090>094-220400-
   SOUTHWEST IOWA

CITY           SKY/WX    TMP DP  RH WIND       PRES   REMARKS
ATLANTIC *     CLOUDY    36  32  87 S9        30.04S WCI  29
AUDUBON *      CLEAR     36  28  75 S14       30.03S HAZE    WCI  27
CLARINDA *     CLOUDY    37  32  81 S6        30.08S WCI  33
COUNCIL BLFS * CLOUDY    36  36 100 S14       30.01F FOG     WCI  27
CRESTON *      CLOUDY    36  32  87 S15       30.05F WCI  26
HARLAN  *      CLOUDY    36  34  93 S13G21    30.05F FOG     WCI  27
LAMONI         CLOUDY    36  29  75 S7        30.07F WCI  30
RED OAK *      CLOUDY    36  32  87 S12       30.05F WCI  27
SHENANDOAH *   CLOUDY    36  34  93 S7        30.06F WCI  30
$$

IAZ047>049-059>061-072>074-084-220400-
   CENTRAL IOWA

CITY           SKY/WX    TMP DP  RH WIND       PRES   REMARKS
AMES           CLOUDY    35  26  69 S9        30.05F WCI  28
ANKENY *       CLOUDY    36  27  69 S10       30.07F WCI  28
CHARITON *     CLOUDY    34  30  86 S9        30.08F WCI  26
DES MOINES     CLOUDY    37  27  67 S10       30.07F WCI  30
GRINNELL*      LGT RAIN  32  27  81 S10       30.09F WCI  24
KNOXVILLE *    CLOUDY    34  28  80 S8        30.06F WCI  27
MARSHALLTOWN   CLOUDY    33  24  69 S15       30.06F WCI  23
PELLA *        CLOUDY    34  28  80 S7        30.09F WCI  28
PERRY *        CLOUDY    36  32  87 S13G18    30.04F WCI  27
$$

IAZ004>006-015-016-023>025-035-036-220400-
   NORTH CENTRAL IOWA

CITY           SKY/WX    TMP DP  RH WIND       PRES   REMARKS
ALGONA *       CLOUDY    34  32  93 S22G32    29.95S WCI  22
CLARION *      CLOUDY    34  30  86 S17       30.00F WCI  23
ESTHERVILLE    MOCLDY    32  28  85 S21       29.92S WCI  20
FORT DODGE *   CLOUDY    34  28  80 S16G23    30.01F WCI  23
MASON CITY     CLOUDY    32  26  78 S17       30.00F WCI  21
FOREST CITY *  CLOUDY    32  30  93 S16       29.97F WCI  21
IOWA FALLS *   CLOUDY    33  26  76 S15       30.04F WCI  23
$$

IAZ007>011-017>019-026>030-037>042-050>054-066-220400-
   NORTHEAST IOWA

CITY           SKY/WX    TMP DP  RH WIND       PRES   REMARKS
CEDAR RAPIDS   CLOUDY    34  21  59 S16       30.10F WCI  24
CHARLES CITY * CLOUDY    32  23  69 S18       30.03F WCI  20
CLINTON *      CLOUDY    36  12  38 S12       30.19F WCI  27
DECORAH *      CLOUDY    32  19  59 S16G24    30.03F WCI  21
DUBUQUE        CLOUDY    30  15  53 S13       30.11F WCI  20
MONTICELLO *   CLOUDY    32  18  55 S12       30.12S WCI  23
OELWEIN *      CLOUDY    32  21  64 S13       30.08S WCI  22
WATERLOO       CLOUDY    32  23  69 S8        30.08F WCI  25
$$

IAZ064-065-067-068-078-220400-
   EAST CENTRAL IOWA

CITY           SKY/WX    TMP DP  RH WIND       PRES   REMARKS
DAVENPORT      CLOUDY    35  13  40 S16       30.16F WCI  25
IOWA CITY      CLOUDY    35  21  56 S12       30.15F WCI  27
MT. PLEASANT * CLOUDY    36  23  60 S13G18    30.13F WCI  27
MUSCATINE *    CLOUDY    37  19  48 S12       30.15F WCI  30
QUAD CITIES    CLOUDY    36  15  42 S7        30.16F WCI  30
$$

IAZ062-063-075>077-085>089-095>099-220400-
   SOUTHEAST IOWA

CITY           SKY/WX    TMP DP  RH WIND       PRES   REMARKS
BURLINGTON     CLOUDY    36  23  59 S14       30.16F WCI  27
FAIRFIELD *    CLOUDY    36  23  60 S13       30.11F WCI  27
FORT MADISON * CLOUDY    37  25  60 S15G21    30.15F WCI  28
KEOKUK *       CLOUDY    37  23  56 S12       30.15F WCI  30
OSKALOOSA *    CLOUDY    33  27  77 S9        30.11F WCI  26
CENTERVILLE *  CLOUDY    36  27  69 SE8       30.11S WCI  29
OTTUMWA        CLOUDY    35  23  61 S10       30.10F WCI  27
WASHINGTON *   CLOUDY    36  23  60 S13       30.12F WCI  27
$$

ABBREVIATIONS USED IN REMARKS
   TC - TEMPERATURES IN CELSIUS
  WCI - WIND CHILL INDEX
   HX - HEAT INDEX
  VSB - VISIBILITY
$$




USA.gov is the U.S. government's official web portal to all federal, state and local government web resources and services.